When you browse on this site, cookies collect data to enhance your experience and personalize the content and advertising you see.
Visit our Privacy Policy to learn more. By continuing to use the site, you agree to this use of cookies and data.
  • In Czech Republic
  • List of Countries
  • For 7 days
  • Water Temperature
  • Satellite Maps
  • Weather Map
  • Weather Widgets
  • user-avatar
    Login

    Hourly Weather Saskatoon

    Today, 26 April, Friday

    Time Temperature Precipitation Wind Pressure Humidity
    00:00 +5°C° 0 mm 1 mps 719 mmHg 34%
    01:00 +5°C° 0 mm 1 mps 719 mmHg 35%
    02:00 +4°C° 0 mm 1 mps 719 mmHg 36%
    03:00 +4°C° 0 mm 1 mps 719 mmHg 37%
    04:00 +3°C° 0 mm 1 mps 719 mmHg 38%
    05:00 +3°C° 0 mm 1 mps 719 mmHg 39%
    06:00 +4°C° 0 mm 1 mps 719 mmHg 36%
    07:00 +6°C° 0 mm 1 mps 719 mmHg 33%
    08:00 +7°C° 0 mm 1 mps 719 mmHg 30%
    09:00 +8°C° 0 mm 1 mps 718 mmHg 27%
    10:00 +9°C° 0 mm 1 mps 718 mmHg 25%
    11:00 +10°C° 0 mm 1 mps 718 mmHg 22%
    12:00 +11°C° 0 mm 1 mps 717 mmHg 22%
    13:00 +11°C° 0 mm 1 mps 717 mmHg 21%
    14:00 +11°C° 0 mm 1 mps 717 mmHg 21%
    15:00 +11°C° 0 mm 1 mps 717 mmHg 22%
    16:00 +11°C° 0 mm 1 mps 717 mmHg 22%
    17:00 +11°C° 0 mm 1 mps 717 mmHg 23%
    18:00 +11°C° 0 mm 1 mps 717 mmHg 25%
    19:00 +10°C° 0 mm 1 mps 717 mmHg 28%
    20:00 +9°C° 0 mm 1 mps 717 mmHg 30%
    21:00 +7°C° 0 mm 2 mps 717 mmHg 36%
    22:00 +5°C° 0 mm 3 mps 717 mmHg 42%
    23:00 +4°C° 0 mm 4 mps 717 mmHg 48%

    Tomorrow, 27 April, Saturday

    Time Temperature Precipitation Wind Pressure Humidity
    00:00 +3°C° 0 mm 4 mps 717 mmHg 51%
    01:00 +3°C° 0 mm 3 mps 717 mmHg 55%
    02:00 +2°C° 0 mm 3 mps 717 mmHg 58%
    03:00 +1°C° 0 mm 3 mps 717 mmHg 60%
    04:00 +2°C° 0 mm 2 mps 717 mmHg 62%
    05:00 +1°C° 0 mm 2 mps 717 mmHg 64%
    06:00 +2°C° 0 mm 3 mps 717 mmHg 57%
    07:00 +4°C° 0 mm 3 mps 717 mmHg 49%
    08:00 +6°C° 0 mm 4 mps 716 mmHg 42%
    09:00 +7°C° 0 mm 4 mps 716 mmHg 37%
    10:00 +8°C° 0 mm 5 mps 716 mmHg 31%
    11:00 +10°C° 0 mm 5 mps 716 mmHg 26%
    12:00 +10°C° 0 mm 6 mps 715 mmHg 25%
    13:00 +11°C° 0 mm 6 mps 715 mmHg 25%
    14:00 +11°C° 0 mm 7 mps 715 mmHg 25%
    15:00 +10°C° 0 mm 7 mps 714 mmHg 26%
    16:00 +10°C° 0 mm 7 mps 714 mmHg 28%
    17:00 +9°C° 0 mm 7 mps 714 mmHg 30%
    18:00 +9°C° 0 mm 7 mps 714 mmHg 30%
    19:00 +8°C° 0 mm 7 mps 714 mmHg 30%
    20:00 +8°C° 0 mm 7 mps 714 mmHg 31%
    21:00 +6°C° 0 mm 8 mps 714 mmHg 35%
    22:00 +5°C° 0 mm 9 mps 715 mmHg 39%
    23:00 +3°C° 0 mm 10 mps 715 mmHg 43%

    Day after tomorrow, 28 April, Sunday

    Time Temperature Precipitation Wind Pressure Humidity
    00:00 +2°C° 0.1 mm 10 mps 715 mmHg 48%
    01:00 +2°C° 0.1 mm 10 mps 715 mmHg 53%
    02:00 +1°C° 0.1 mm 10 mps 716 mmHg 57%
    03:00 0°C° 1.1 mm 10 mps 716 mmHg 66%
    04:00 -1°C° 1.1 mm 9 mps 716 mmHg 74%
    05:00 -3°C° 1.1 mm 9 mps 717 mmHg 83%
    06:00 -4°C° 1.3 mm 9 mps 717 mmHg 85%
    07:00 -4°C° 1.3 mm 9 mps 718 mmHg 88%
    08:00 -5°C° 1.3 mm 9 mps 719 mmHg 91%
    09:00 -5°C° 0.8 mm 9 mps 719 mmHg 90%
    10:00 -5°C° 0.8 mm 8 mps 720 mmHg 89%
    11:00 -5°C° 0.8 mm 8 mps 721 mmHg 89%
    12:00 -4°C° 0.6 mm 7 mps 721 mmHg 88%
    13:00 -4°C° 0.6 mm 6 mps 721 mmHg 87%
    14:00 -4°C° 0.6 mm 6 mps 721 mmHg 86%
    15:00 -2°C° 0.1 mm 4 mps 721 mmHg 84%
    16:00 -1°C° 0.1 mm 3 mps 722 mmHg 83%
    17:00 +1°C° 0.1 mm 2 mps 722 mmHg 81%
    18:00 -1°C° 0 mm 2 mps 722 mmHg 79%
    19:00 -2°C° 0 mm 2 mps 723 mmHg 76%
    20:00 -1°C° 0 mm 1 mps 723 mmHg 74%
    21:00 -2°C° 0 mm 1 mps 723 mmHg 74%
    22:00 -5°C° 0 mm 2 mps 723 mmHg 74%
    23:00 -6°C° 0 mm 2 mps 723 mmHg 75%

    29 April, Monday

    Time Temperature Precipitation Wind Pressure Humidity
    00:00 -6°C° 0 mm 2 mps 723 mmHg 76%
    01:00 -7°C° 0 mm 2 mps 723 mmHg 77%
    02:00 -7°C° 0 mm 2 mps 723 mmHg 78%
    03:00 -7°C° 0 mm 2 mps 723 mmHg 79%
    04:00 -7°C° 0 mm 2 mps 723 mmHg 79%
    05:00 -8°C° 0 mm 2 mps 724 mmHg 79%
    06:00 -6°C° 0 mm 2 mps 724 mmHg 80%
    07:00 -6°C° 0 mm 3 mps 724 mmHg 80%
    08:00 -4°C° 0 mm 3 mps 724 mmHg 80%
    09:00 -2°C° 0 mm 3 mps 723 mmHg 84%
    10:00 -3°C° 0 mm 4 mps 723 mmHg 88%
    11:00 -2°C° 0 mm 4 mps 723 mmHg 92%
    12:00 -1°C° 0.1 mm 4 mps 722 mmHg 90%
    13:00 -1°C° 0.1 mm 5 mps 722 mmHg 89%
    14:00 0°C° 0.1 mm 5 mps 722 mmHg 88%
    15:00 0°C° 0 mm 5 mps 721 mmHg 85%
    16:00 -1°C° 0 mm 6 mps 721 mmHg 82%
    17:00 -1°C° 0 mm 6 mps 721 mmHg 80%
    18:00 0°C° 0 mm 5 mps 721 mmHg 82%
    19:00 -1°C° 0 mm 5 mps 721 mmHg 84%
    20:00 -2°C° 0 mm 5 mps 721 mmHg 86%
    21:00 -2°C° 0 mm 5 mps 721 mmHg 86%
    22:00 -3°C° 0 mm 4 mps 721 mmHg 86%
    23:00 -3°C° 0 mm 4 mps 721 mmHg 86%

    30 April, Tuesday

    Time Temperature Precipitation Wind Pressure Humidity
    00:00 -3°C° 0 mm 4 mps 720 mmHg 86%
    01:00 -4°C° 0 mm 4 mps 720 mmHg 85%
    02:00 -4°C° 0 mm 4 mps 720 mmHg 85%
    03:00 -4°C° 0 mm 4 mps 720 mmHg 85%
    04:00 -4°C° 0 mm 4 mps 720 mmHg 85%
    05:00 -4°C° 0 mm 3 mps 720 mmHg 86%
    06:00 -2°C° 0 mm 3 mps 720 mmHg 83%
    07:00 -2°C° 0 mm 4 mps 720 mmHg 81%
    08:00 -1°C° 0 mm 4 mps 720 mmHg 79%
    09:00 +1°C° 0 mm 4 mps 720 mmHg 74%
    10:00 +3°C° 0 mm 4 mps 720 mmHg 70%
    11:00 +3°C° 0 mm 5 mps 720 mmHg 65%
    12:00 +5°C° 0 mm 5 mps 719 mmHg 59%
    13:00 +5°C° 0 mm 5 mps 719 mmHg 53%
    14:00 +5°C° 0 mm 6 mps 719 mmHg 46%
    15:00 +5°C° 0 mm 6 mps 719 mmHg 47%
    16:00 +6°C° 0 mm 5 mps 718 mmHg 48%
    17:00 +6°C° 0 mm 5 mps 718 mmHg 49%
    18:00 +3°C° 0 mm 5 mps 718 mmHg 57%
    19:00 +1°C° 0 mm 4 mps 718 mmHg 65%
    20:00 +1°C° 0 mm 3 mps 718 mmHg 73%
    21:00 +1°C° 0 mm 3 mps 719 mmHg 73%
    22:00 0°C° 0 mm 3 mps 719 mmHg 72%
    23:00 0°C° 0 mm 3 mps 719 mmHg 72%

    1 May, Wednesday

    Time Temperature Precipitation Wind Pressure Humidity
    00:00 -1°C° 0 mm 3 mps 719 mmHg 72%
    01:00 -1°C° 0 mm 3 mps 719 mmHg 72%
    02:00 -1°C° 0 mm 2 mps 719 mmHg 72%
    03:00 -1°C° 0 mm 2 mps 719 mmHg 72%
    04:00 -1°C° 0 mm 2 mps 720 mmHg 71%
    05:00 -1°C° 0 mm 2 mps 720 mmHg 70%
    06:00 +2°C° 0 mm 2 mps 720 mmHg 63%
    07:00 +4°C° 0 mm 2 mps 720 mmHg 57%
    08:00 +6°C° 0 mm 2 mps 721 mmHg 50%
    09:00 +7°C° 0 mm 3 mps 721 mmHg 46%
    10:00 +9°C° 0 mm 3 mps 721 mmHg 42%
    11:00 +10°C° 0 mm 4 mps 721 mmHg 38%
    12:00 +11°C° 0 mm 4 mps 721 mmHg 37%
    13:00 +11°C° 0 mm 4 mps 721 mmHg 36%
    14:00 +12°C° 0 mm 4 mps 721 mmHg 35%
    15:00 +12°C° 0 mm 4 mps 721 mmHg 35%
    16:00 +11°C° 0 mm 4 mps 721 mmHg 35%
    17:00 +11°C° 0 mm 4 mps 721 mmHg 35%
    18:00 +10°C° 0 mm 4 mps 721 mmHg 41%
    19:00 +9°C° 0 mm 3 mps 721 mmHg 46%
    20:00 +8°C° 0 mm 3 mps 721 mmHg 52%
    21:00 +7°C° 0 mm 3 mps 721 mmHg 54%
    22:00 +5°C° 0 mm 3 mps 721 mmHg 57%
    23:00 +4°C° 0 mm 3 mps 722 mmHg 59%
    Show more